Total_Precipitation_Accumulation
0.00 0.00 0.00 0.00 0.00 0.00 0.00 0.00 0.01 0.02 0.01 0.01 0.01 0.04 0.07 0.11 0.19 0.14 0.15 0.13 0.13 0.09 0.11 0.09 0.06 0.04 0.04 0.06 0.10 0.16 0.14 0.09 0.05 0.01 0.00 0.00 0.00 0.00 0.00 0.00 0.00 0.00 0.00
0.00 0.00 0.00 0.00 0.00 0.00 0.00 0.00 0.02 0.03 0.02 0.01 0.01 0.02 0.04 0.05 0.07 0.09 0.13 0.15 0.15 0.12 0.12 0.09 0.06 0.05 0.08 0.16 0.14 0.12 0.20 0.19 0.14 0.06 0.01 0.00 0.00 0.00 0.00 0.00 0.00 0.00 0.00
0.00 0.00 0.00 0.00 0.00 0.00 0.00 0.01 0.03 0.03 0.02 0.01 0.01 0.02 0.04 0.07 0.09 0.13 0.15 0.12 0.13 0.13 0.10 0.07 0.07 0.09 0.13 0.15 0.20 0.21 0.21 0.20 0.24 0.16 0.04 0.00 0.00 0.00 0.00 0.00 0.00 0.00 0.00
0.02 0.03 0.03 0.03 0.02 0.01 0.01 0.02 0.04 0.03 0.03 0.01 0.00 0.01 0.01 0.04 0.05 0.07 0.07 0.07 0.11 0.09 0.04 0.09 0.16 0.23 0.29 0.28 0.34 0.29 0.23 0.18 0.17 0.18 0.09 0.04 0.02 0.00 0.00 0.00 0.00 0.00 0.00
0.03 0.06 0.09 0.09 0.10 0.08 0.05 0.06 0.06 0.04 0.02 0.01 0.00 0.00 0.01 0.06 0.05 0.03 0.04 0.07 0.08 0.07 0.06 0.10 0.13 0.16 0.19 0.22 0.27 0.22 0.20 0.18 0.15 0.15 0.15 0.13 0.15 0.05 0.01 0.00 0.00 0.00 0.00
0.03 0.08 0.14 0.17 0.19 0.14 0.09 0.07 0.04 0.02 0.00 0.00 0.00 0.00 0.01 0.03 0.04 0.04 0.04 0.04 0.03 0.03 0.04 0.06 0.14 0.18 0.12 0.16 0.20 0.19 0.22 0.18 0.14 0.15 0.18 0.22 0.29 0.29 0.14 0.07 0.02 0.00 0.00
0.06 0.12 0.20 0.25 0.25 0.17 0.11 0.05 0.01 0.00 0.00 0.00 0.00 0.00 0.00 0.01 0.05 0.11 0.06 0.03 0.02 0.01 0.02 0.03 0.09 0.16 0.14 0.21 0.17 0.06 0.09 0.13 0.14 0.15 0.19 0.23 0.28 0.32 0.29 0.25 0.15 0.06 0.01
0.18 0.20 0.19 0.21 0.22 0.18 0.10 0.04 0.01 0.00 0.00 0.00 0.00 0.01 0.01 0.01 0.02 0.02 0.01 0.00 0.01 0.01 0.01 0.01 0.01 0.04 0.05 0.13 0.19 0.09 0.05 0.05 0.06 0.09 0.13 0.16 0.24 0.31 0.27 0.26 0.21 0.13 0.05
0.35 0.36 0.26 0.19 0.11 0.07 0.04 0.02 0.01 0.00 0.00 0.00 0.00 0.00 0.01 0.01 0.01 0.00 0.00 0.00 0.00 0.00 0.00 0.00 0.00 0.01 0.02 0.05 0.11 0.18 0.18 0.09 0.04 0.05 0.08 0.06 0.04 0.08 0.12 0.19 0.20 0.11 0.05
0.38 0.52 0.54 0.31 0.10 0.04 0.03 0.02 0.00 0.00 0.00 0.00 0.00 0.00 0.00 0.00 0.00 0.00 0.00 0.00 0.00 0.00 0.00 0.00 0.00 0.01 0.03 0.09 0.13 0.09 0.12 0.10 0.07 0.06 0.07 0.07 0.05 0.03 0.03 0.09 0.19 0.15 0.07
0.43 0.59 0.59 0.27 0.12 0.05 0.03 0.01 0.00 0.00 0.00 0.00 0.01 0.00 0.00 0.01 0.00 0.00 0.00 0.00 0.00 0.00 0.01 0.02 0.02 0.03 0.03 0.03 0.01 0.01 0.01 0.02 0.03 0.03 0.04 0.08 0.09 0.08 0.06 0.06 0.14 0.19 0.14
0.09 0.19 0.24 0.15 0.08 0.04 0.02 0.02 0.02 0.02 0.01 0.01 0.02 0.02 0.03 0.02 0.01 0.00 0.00 0.00 0.00 0.00 0.01 0.02 0.03 0.04 0.02 0.01 0.00 0.00 0.00 0.00 0.01 0.01 0.02 0.05 0.09 0.12 0.12 0.12 0.15 0.18 0.19
0.01 0.01 0.04 0.05 0.04 0.02 0.03 0.04 0.06 0.06 0.05 0.04 0.04 0.05 0.05 0.04 0.02 0.01 0.01 0.00 0.01 0.01 0.02 0.01 0.02 0.03 0.04 0.03 0.00 0.00 0.00 0.00 0.00 0.01 0.02 0.04 0.06 0.08 0.12 0.16 0.21 0.22 0.20
0.02 0.01 0.01 0.02 0.01 0.02 0.04 0.08 0.15 0.19 0.17 0.15 0.12 0.11 0.08 0.06 0.05 0.04 0.05 0.03 0.03 0.03 0.02 0.01 0.02 0.06 0.08 0.05 0.02 0.01 0.01 0.00 0.00 0.01 0.01 0.02 0.04 0.08 0.15 0.23 0.25 0.23 0.20
0.02 0.02 0.01 0.01 0.01 0.01 0.03 0.12 0.25 0.32 0.30 0.33 0.30 0.22 0.15 0.11 0.11 0.15 0.19 0.15 0.09 0.08 0.05 0.02 0.02 0.07 0.08 0.07 0.05 0.03 0.02 0.00 0.00 0.00 0.01 0.01 0.02 0.05 0.12 0.22 0.31 0.28 0.23
0.04 0.05 0.04 0.04 0.03 0.03 0.04 0.10 0.21 0.29 0.32 0.37 0.40 0.30 0.25 0.20 0.17 0.21 0.29 0.27 0.16 0.14 0.12 0.08 0.04 0.04 0.08 0.11 0.09 0.07 0.03 0.01 0.00 0.00 0.01 0.01 0.01 0.02 0.06 0.10 0.19 0.25 0.25
0.16 0.16 0.16 0.15 0.13 0.10 0.09 0.11 0.17 0.23 0.29 0.33 0.33 0.25 0.23 0.30 0.32 0.35 0.34 0.25 0.18 0.21 0.23 0.17 0.10 0.06 0.07 0.09 0.11 0.12 0.09 0.03 0.01 0.00 0.01 0.01 0.01 0.02 0.03 0.05 0.10 0.14 0.17
0.26 0.22 0.19 0.17 0.13 0.11 0.11 0.12 0.14 0.16 0.19 0.18 0.15 0.12 0.18 0.27 0.28 0.27 0.24 0.20 0.19 0.25 0.31 0.24 0.18 0.16 0.12 0.11 0.18 0.14 0.07 0.04 0.02 0.01 0.01 0.00 0.00 0.01 0.03 0.04 0.06 0.09 0.12
0.12 0.08 0.05 0.04 0.03 0.02 0.03 0.03 0.02 0.02 0.02 0.02 0.02 0.04 0.05 0.05 0.05 0.05 0.06 0.10 0.14 0.18 0.16 0.18 0.29 0.26 0.21 0.24 0.22 0.12 0.04 0.02 0.02 0.03 0.02 0.01 0.00 0.01 0.02 0.05 0.05 0.04 0.08
0.01 0.00 0.00 0.00 0.00 0.00 0.00 0.00 0.00 0.00 0.00 0.00 0.00 0.00 0.00 0.00 0.00 0.00 0.01 0.03 0.06 0.08 0.08 0.11 0.19 0.25 0.25 0.22 0.11 0.08 0.09 0.06 0.08 0.07 0.03 0.01 0.00 0.01 0.03 0.06 0.07 0.03 0.04
0.00 0.00 0.00 0.00 0.00 0.00 0.00 0.00 0.00 0.00 0.00 0.00 0.00 0.00 0.00 0.00 0.00 0.00 0.00 0.00 0.00 0.01 0.03 0.06 0.06 0.08 0.09 0.08 0.06 0.09 0.09 0.08 0.09 0.06 0.03 0.01 0.02 0.02 0.04 0.06 0.05 0.03 0.04
0.00 0.00 0.00 0.00 0.00 0.00 0.00 0.00 0.00 0.00 0.00 0.00 0.00 0.00 0.00 0.00 0.00 0.00 0.00 0.00 0.00 0.00 0.00 0.01 0.00 0.01 0.01 0.01 0.02 0.02 0.02 0.03 0.03 0.02 0.03 0.04 0.05 0.05 0.06 0.05 0.04 0.03 0.02
0.00 0.00 0.00 0.00 0.00 0.00 0.00 0.00 0.00 0.00 0.00 0.00 0.00 0.00 0.00 0.00 0.00 0.00 0.00 0.00 0.00 0.00 0.00 0.00 0.00 0.01 0.02 0.01 0.01 0.01 0.01 0.01 0.01 0.02 0.06 0.10 0.12 0.09 0.06 0.04 0.03 0.02 0.01
0.00 0.00 0.00 0.00 0.00 0.00 0.00 0.00 0.00 0.00 0.00 0.00 0.00 0.00 0.00 0.00 0.00 0.00 0.00 0.00 0.00 0.00 0.00 0.00 0.01 0.04 0.04 0.03 0.02 0.01 0.02 0.02 0.01 0.02 0.07 0.12 0.15 0.09 0.06 0.04 0.02 0.01 0.01
0.00 0.00 0.00 0.00 0.00 0.00 0.00 0.00 0.00 0.00 0.00 0.00 0.00 0.00 0.00 0.00 0.00 0.00 0.00 0.00 0.00 0.00 0.00 0.00 0.00 0.01 0.01 0.01 0.02 0.03 0.04 0.03 0.01 0.04 0.11 0.18 0.16 0.10 0.06 0.03 0.02 0.01 0.01
0.00 0.00 0.00 0.00 0.00 0.00 0.00 0.00 0.00 0.00 0.00 0.00 0.00 0.00 0.00 0.00 0.00 0.00 0.00 0.00 0.00 0.00 0.00 0.01 0.01 0.01 0.01 0.02 0.04 0.07 0.07 0.05 0.06 0.09 0.17 0.20 0.20 0.16 0.10 0.04 0.02 0.01 0.01